Location: ???????
(38.4032°N, 23.6467°E)
Time: 05:26:47
(UTC+00:00)

Daily predictions for brighter satellites

Satellite Brightness Start Highest point End
(mag) Time Altitude Azimuth Time Altitude Azimuth Time Altitude Azimuth
Centaur D AC-25 4.2 01:35:55 31° SSE 01:35:55 31° SSE 01:43:23 10° ESE
ATLAS CENTAUR R/B 3.1 01:36:26 36° E 01:36:26 36° E 01:39:57 10° NE
Atlas Centaur 2 3.4 01:39:07 47° SSE 01:39:07 47° SSE 01:45:57 10° ESE
Cosmos 1833 Rocket 2.8 01:51:06 68° NNE 01:51:06 68° NNE 01:56:01 10° NNE
CZ-3 R/B 4.3 01:37:58 32° SW 01:50:35 46° S 02:00:54 10° ESE
CZ-2C R/B 2.6 01:53:52 10° NNE 01:58:09 65° NNE 01:58:09 65° NNE
Cosmos 1151 Rocket 4.5 02:02:23 29° N 02:02:23 29° N 02:04:33 10° N
FENGYUN 3A 4.2 01:56:10 10° N 02:00:11 47° NNW 02:00:11 47° NNW
DELTA 2 R/B (1) 3.5 02:02:06 79° SSE 02:02:06 79° SSE 02:07:38 10° ENE
Cosmos 2082 Rocket 3.0 02:04:15 26° SSE 02:07:08 48° ESE 02:12:31 10° NE
USA 306 4.5 02:09:23 26° N 02:09:23 26° N 02:11:45 10° NNE
USA 234 4.0 02:05:49 10° ENE 02:12:04 46° SE 02:16:02 22° S
ARIANE 5 R/B 2.8 02:07:07 10° NNE 02:12:07 64° ESE 02:14:27 31° S
COSMOS 2406 3.2 02:12:52 44° S 02:14:43 77° ESE 02:20:23 10° NNE
BREEZE M DEB (TANK) 3.9 02:17:55 32° ENE 02:17:55 32° ENE 02:19:58 10° ENE
Tiangong 0.5 02:19:39 16° SE 02:19:39 16° SE 02:20:23 10° SE
Cosmos 1697 Rocket 2.8 02:13:18 10° NNW 02:18:59 76° ENE 02:24:38 10° SSE
ALOS 3.3 02:14:58 10° N 02:17:49 33° NNW 02:17:49 33° NNW
Cosmos 1447 Rocket 4.4 02:14:50 10° N 02:21:10 82° W 02:27:23 10° S
METEOR-M 4.0 02:16:41 10° NNE 02:22:04 84° WNW 02:24:06 40° SSW
CZ-2C R/B 3.0 02:18:42 10° SSE 02:23:49 64° ENE 02:29:03 10° N
Cosmos 1624 Rocket 4.0 02:26:09 56° W 02:26:34 58° WNW 02:31:50 10° N
IRS-P3 4.0 02:21:24 10° NNE 02:26:47 88° WNW 02:29:48 27° SSW
Helios 1B rocket 2.9 02:23:44 10° N 02:26:53 48° NNW 02:26:53 48° NNW
USA 308 4.2 02:30:44 27° NNW 02:30:44 27° NNW 02:33:57 10° NNE
CZ-2D R/B 3.4 02:28:13 10° NNE 02:32:11 75° ESE 02:33:53 33° S
Orbus 7S? 4.5 02:33:29 28° NNW 02:33:29 28° NNW 02:36:50 10° NNE
Cosmos 1743 2.6 02:32:00 10° N 02:35:48 82° E 02:39:35 10° S
Cosmos 1441 Rocket 3.1 02:37:34 63° NW 02:37:34 63° NW 02:40:57 10° N
H-2A R/B 3.2 02:35:25 25° SSW 02:37:17 34° SSE 02:50:58 10° E
Envisat 3.4 02:33:49 10° NNE 02:38:53 65° E 02:43:54 10° S
Cosmos 1371 Rocket 4.4 02:40:10 39° W 02:40:37 40° WNW 02:45:34 10° N
Cosmos 1536 2.7 02:37:09 10° N 02:41:13 87° W 02:45:15 10° S
Dummy Sat-02 4.5 02:42:25 29° S 02:44:13 82° W 02:47:59 10° N
Meteor 1-4 Rocket 2.4 02:42:25 10° N 02:46:04 85° W 02:49:42 10° S
Cosmos 1346 Rocket 3.7 02:47:24 32° NW 02:47:24 32° NW 02:50:15 10° N
Cosmos 1459 Rocket 4.0 02:41:26 10° S 02:47:45 88° W 02:54:11 10° N
CENTAUR R/B 2.5 02:43:54 16° SSW 02:48:26 72° ESE 02:55:02 10° NE
CZ-2C R/B 4.2 02:48:18 10° NNE 02:51:52 38° E 02:55:28 10° S
SL-08 R/B 3.2 02:49:23 10° SSE 02:54:00 88° E 02:58:44 10° NNW
Cosmos 1802 Rocket 4.1 02:49:09 10° S 02:55:33 84° E 03:01:55 10° N
DELTA 2 DEB (DPAF) 4.0 02:52:20 10° S 02:56:43 69° WSW 03:01:07 10° NNW
Cosmos 1980 Rocket 2.3 02:53:14 10° NNW 02:58:51 79° ENE 03:04:26 10° SSE
Meteor 1-27 Rocket 3.9 02:53:42 10° SSW 02:59:16 54° WNW 03:05:00 10° N
H-2A R/B 2.8 02:58:31 10° NNE 03:02:10 72° ESE 03:05:48 10° S
Cosmos 2346 Rocket 4.3 02:56:59 10° N 03:03:02 73° W 03:09:07 10° S
Cosmos 2369 3.6 02:59:33 10° NNW 03:05:15 85° WSW 03:10:54 10° SSE
Cosmos 1725 Rocket 4.2 02:59:18 10° S 03:05:35 77° E 03:11:55 10° N
CZ-2C R/B 3.2 03:00:12 10° NNE 03:05:59 89° ESE 03:11:30 10° SSW
NOSS 3-2 (C) 4.1 03:01:04 10° S 03:06:05 48° ESE 03:11:45 10° NE
NOSS 3-2 (A) 3.1 03:04:02 14° SW 03:08:36 79° WNW 03:14:42 10° NNE
Meteor 1-29 2.9 03:07:15 10° N 03:10:28 54° WNW 03:13:25 12° SSW
X-37B 2.4 03:10:50 15° NW 03:12:12 21° N 03:14:30 10° NE
Cosmos 2278 4.5 03:07:14 10° NNW 03:12:48 55° ENE 03:18:18 10° SE
ATLAS CENTAUR R/B 2.9 03:12:27 21° W 03:14:16 26° NW 03:18:20 10° N
Cosmos 1954 Rocket 4.3 03:10:35 10° NNW 03:15:32 43° WSW 03:20:29 10° S
BREEZE-M DEB (TANK) 4.4 03:14:11 10° NNW 03:15:40 14° NNE 03:17:02 10° NE
SL-16 R/B 4.3 03:11:20 10° N 03:16:13 29° ENE 03:21:03 10° ESE
Cosmos 1633 Rocket 4.1 03:13:36 10° NW 03:17:04 24° W 03:20:31 10° SW
CZ-4C R/B 3.4 03:13:22 10° SSE 03:17:26 88° E 03:21:44 10° NNW
YAOGAN 6 3.3 03:14:56 10° N 03:18:12 32° WNW 03:20:36 15° SW
Cosmos 2173 Rocket 4.2 03:12:40 10° SSW 03:18:33 47° WNW 03:24:25 10° N
Okean 1 3.5 03:17:36 10° SSW 03:21:31 49° W 03:25:27 10° N
Cosmos 44 Rocket 4.0 03:18:49 19° WSW 03:21:34 33° NW 03:25:50 10° NNE
USA 238 DEB 4.1 03:15:39 10° SSW 03:21:51 62° ESE 03:28:26 10° NE
USA 238 4.1 03:15:46 10° SSW 03:21:59 62° ESE 03:28:32 10° NE
NOAA 11 4.2 03:17:32 10° NNE 03:23:02 90° WNW 03:28:29 10° SSW
Cosmos 1461 2.7 03:21:49 10° SW 03:25:43 68° WNW 03:29:49 10° NNE
Atlas Centaur 2 3.5 03:21:38 15° WSW 03:27:44 40° SSW 03:34:07 10° SE
Cosmos 1933 Rocket 3.6 03:24:01 10° NNW 03:28:21 56° W 03:32:39 10° S
GP-B 3.2 03:24:08 10° SSW 03:28:25 51° W 03:32:45 10° NNW
Cosmos 192 4.4 03:28:12 10° SSW 03:33:09 86° ESE 03:38:08 10° NNE
TIMED 4.4 03:28:59 10° SSW 03:33:19 75° WNW 03:37:41 10° NNE
Spot 4 Rocket 4.4 03:29:10 10° N 03:34:00 44° WNW 03:38:51 10° SW
Cosmos 1833 Rocket 4.5 03:32:50 11° WNW 03:35:05 13° NW 03:37:42 10° NNW
Cosmos 1484 Rocket 4.3 03:32:33 10° NNW 03:35:21 19° WNW 03:38:01 11° WSW
CZ-2C R/B 4.3 03:34:58 10° NW 03:36:16 11° WNW 03:37:30 10° WNW
Cosmos 1741 Rocket 4.0 03:32:04 10° NNW 03:37:19 89° W 03:42:31 10° SSE
SJ-6F 4.5 03:34:06 10° N 03:38:11 60° WNW 03:42:14 10° SSW
SKYMED 2 3.8 03:34:14 10° SSE 03:38:33 74° ENE 03:42:54 10° N
SL-24 R/B - RUBIN 2 3.5 03:34:24 10° SW 03:38:54 71° WNW 03:43:15 10° NNE
PSLV R/B 3.7 03:35:03 10° N 03:39:14 50° WNW 03:43:21 10° SSW
USA 276 4.4 03:40:02 10° S 03:42:25 21° SE 03:44:49 10° E
CZ-4B R/B 3.6 03:37:50 10° NNE 03:43:06 83° WNW 03:48:22 10° SSW
Meteor 1-31 Rocket 4.2 03:40:32 10° NNE 03:44:12 43° E 03:47:51 10° S
ASTRO E2 4.3 03:44:20 10° WSW 03:47:25 22° SSW 03:50:29 10° SE
Cosmos 2228 Rocket 3.1 03:43:03 10° SSW 03:47:33 73° W 03:52:02 10° N
BREEZE M DEB (TANK) 4.2 03:34:53 10° WSW 03:47:35 44° NW 03:51:27 10° NE
DELTA 2 R/B (1) 3.7 03:42:56 10° W 03:48:34 79° N 03:54:11 10° E
Cosmos 1975 2.7 03:46:23 10° N 03:50:22 79° W 03:54:20 10° S
ARIANE 5 R/B 4.1 03:47:56 10° NNW 03:50:37 15° WNW 03:53:18 10° W
SJ-12 4.0 03:47:24 10° N 03:51:23 54° WNW 03:55:22 10° SSW
Cosmos 2082 Rocket 3.4 03:47:03 10° WSW 03:51:27 23° NW 03:55:53 10° N
Cosmos 1302 Rocket 4.4 03:47:00 10° S 03:52:14 73° ESE 03:57:31 10° NNE
Cosmos 1331 Rocket 4.1 03:47:15 10° SW 03:52:15 51° WNW 03:57:17 10° N
Delta 2 Rocket 3.2 03:51:31 10° WSW 03:54:47 53° S 03:58:03 10° ESE
H-2A R/B 3.8 03:49:51 10° NNE 03:55:00 41° E 04:00:05 10° SSE
USA 234 3.6 03:48:47 10° NE 03:55:03 50° NW 04:01:18 10° WSW
Cosmos 2061 Rocket 4.3 03:52:11 10° SSW 03:58:03 44° WNW 04:03:56 10° N
